• Join FlightAware (Why Join?)
  • Login
  • US Flag 
10:56PM EDT


 

Airport Tracker/Info


-or-


 

Live Flight TrackerFlight Track Log ✈ WEW1540 ✈ 01-May-2013 ✈ CYYN - CYQR

Flight Track Log - Related Links

Times and Time Zones

All times are in EDT time to prevent confusion due to time zone crossing. See the WEW1540 flight status page for this flight to view local times or setup timezone preferences in your user account.

Time Position Orientation Groundspeed Altitude Reporting Facility
EDT Latitude Longitude Course Direction KTS MPH feet Rate Location/Type
07:57PM 50.2500 -107.4833 85° East 160 184 8,900  Level Winnipeg Center
07:58PM 50.2667 -107.4167 69° East 170 196 9,000  Climbing Winnipeg Center
07:59PM 50.3000 -107.3333 58° Northeast 200 230 9,000  Level Winnipeg Center
08:00PM 50.3333 -107.2667 52° Northeast 200 230 9,000  Level Winnipeg Center
08:01PM 50.3667 -107.1833 58° Northeast 200 230 9,000  Level Winnipeg Center
08:02PM 50.3309 -107.0004 85° East  Level Estimated
08:02PM 50.3833 -107.1167 69° East 200 230 9,000  Level Winnipeg Center
08:03PM 50.3349 -106.9236 85° East  Level Estimated
08:03PM 50.4000 -107.0500 69° East 200 230 9,000  Level Winnipeg Center
08:04PM 50.4167 -106.9667 73° East 200 230 9,000  Level Winnipeg Center
08:05PM 50.4167 -106.8667 90° East 200 230 9,000  Level Winnipeg Center
08:06PM 50.4167 -106.7833 90° East 200 230 9,000  Level Winnipeg Center
08:07PM 50.4000 -106.7000 107° East 210 242 9,000  Level Winnipeg Center
08:08PM 50.4167 -106.6000 75° East 210 242 9,000  Level Winnipeg Center
08:09PM 50.4000 -106.5167 107° East 210 242 9,000  Level Winnipeg Center
08:10PM 50.4167 -106.4167 75° East 210 242 9,000  Level Winnipeg Center
08:11PM 50.4333 -106.3333 73° East 200 230 9,000  Level Winnipeg Center
08:12PM 50.4500 -106.2667 69° East 200 230 9,000  Level Winnipeg Center
08:13PM 50.4833 -106.1833 58° Northeast 200 230 9,000  Level Winnipeg Center
08:14PM 50.5000 -106.1167 69° East 200 230 9,100  Climbing Winnipeg Center
08:15PM 50.5167 -106.0000 77° East 200 230 9,100  Level Winnipeg Center
08:16PM 50.5167 -105.9333 90° East 210 242 9,100  Level Winnipeg Center
08:17PM 50.5333 -105.8167 77° East 200 230 9,100  Level Winnipeg Center
08:18PM 50.5333 -105.7500 74° East 210 242 9,100  Level Winnipeg Center
08:19PM 50.5524 -105.7093 74° East  Level FlightAware Approximate
08:19PM 50.5500 -105.6667 72° East 210 242 9,100  Level Winnipeg Center
08:20PM 50.5667 -105.5667 75° East 200 230 9,100  Level Winnipeg Center
08:21PM 50.5667 -105.4833 90° East 200 230 9,100  Level Winnipeg Center
08:22PM 50.5667 -105.4167 90° East 200 230 9,100 -360 Level Winnipeg Center
08:24PM 50.6035 -105.3098 73° East  Level FlightAware Approximate
08:24PM 50.5167 -105.2333 73° East 220 253 8,100  Level Winnipeg Center
08:25PM 50.5000 -105.1500 107° East 220 253 7,500 -600 Descending Winnipeg Center
08:26PM 50.4667 -105.0500 118° Southeast 210 242 7,000 -720 Descending Winnipeg Center
08:27PM 50.4333 -104.9667 122° Southeast 210 242 6,100 -1,020 Descending Winnipeg Center
08:28PM 50.4333 -104.8833 90° East 210 242 5,000 -1,200 Descending Winnipeg Center
08:29PM 50.4167 -104.8000 107° East 200 230 3,700 -1,020 Descending Winnipeg Center
08:30PM 50.4000 -104.7167 107° East 160 184 3,000 -900 Descending Winnipeg Center
08:31PM 50.4000 -104.7000 90° East 100 115 2,000 -540 Descending Winnipeg Center
08:32PM 50.4000 -104.6667 90° East 60 69 2,000  Level Winnipeg Center